[[{"header":{"parameterUnit":"m.s-1","parameterCategory":1,"la1":30.2991,"la2":30.254,"lo1":-89.0895,"lo2":-89.0444,"dy":0.0017,"dx":0.0017,"nx":28,"ny":28,"refTime":"2025-03-02T09:00:00:Z","depth":0,"parameterNumber":2,"parameterNumberName":"U-component_of_WINDS"},"data":[0,0,0,0,0,0,0,0,0,0,0,0,0,0,0,0,0,0,0,0,0,0,0,0,0,0,0,0,0,0,0,0,0,0,0,0,0,0,0,0,0,0,0,0,0,0,0,0,0,0,0,0,0,0,0,0,0,0,-4.5045,-4.5045,0,-4.5076,-4.5076,-4.5077,-4.4913,-4.4908,-4.4903,-4.4899,-4.4933,-4.4938,-4.4943,0,0,0,0,0,0,0,0,0,0,0,0,0,-4.4844,-4.4848,-4.5045,-4.5045,-4.5046,-4.5076,-4.5076,-4.5077,-4.4914,-4.4908,-4.4902,-4.4897,-4.4931,-4.4937,-4.4944,0,0,0,0,0,0,0,0,0,0,0,0,0,-4.4909,-4.485,-4.5045,-4.4968,-4.4961,-4.5076,-4.5076,-4.5077,-4.4915,-4.4908,-4.4901,-4.4894,-4.4929,-4.4937,-4.4944,-4.5135,0,0,-4.4969,-4.4972,0,0,0,0,0,0,0,0,-4.4906,-4.4917,-4.4979,-4.4973,-4.4966,-4.4983,-4.5018,-4.5097,-4.4917,-4.4933,-4.4899,-4.4891,-4.4955,-4.4961,-4.4982,-4.5137,-4.5138,-4.4969,-4.4974,-4.4978,-4.498,0,0,0,0,0,0,0,-4.4901,-4.4914,-4.5057,-4.498,-4.4972,-4.4932,-4.4933,-4.5032,-4.4983,-4.4931,-4.4919,-4.4925,-4.4951,-4.4975,-4.4982,-4.5139,-4.4969,-4.4976,-4.4981,-4.4984,-4.545,-4.5457,0,0,0,0,0,0,-4.4907,-4.4912,-4.5056,-4.5058,-4.4918,-4.4941,-4.4943,-4.4985,-4.4982,-4.4974,-4.4931,-4.4917,-4.4965,-4.4973,-4.4982,-4.5205,-4.4978,-4.4985,-4.499,-4.5443,-4.5452,-4.546,0,0,0,0,0,0,-4.4903,-4.4921,-4.5055,-4.4982,-4.4995,-4.4952,-4.5001,-4.4989,-4.5013,-4.4982,-4.4972,-4.4964,-4.496,-4.4971,-4.5098,-4.5203,-4.4989,-4.4996,-4.5434,-4.5445,-4.5456,-4.5652,0,0,0,0,0,0,-4.4898,-4.4921,-4.4993,-4.4984,-4.5,-4.5171,-4.5007,-4.4995,-4.5027,-4.501,-4.5011,-4.5004,-4.4955,-4.5087,-4.5106,-4.5211,-4.5002,-4.5424,-4.5439,-4.5452,-4.5636,-4.5668,-4.5696,0,0,0,0,0,-4.4891,-4.5048,-4.4998,-4.5016,-4.5089,-4.5177,-4.5186,-4.5125,-4.5037,-4.5109,-4.5088,-4.5004,-4.5189,-4.5101,-4.5121,-4.523,-4.5417,-4.5435,-4.5451,-4.5622,-4.5662,-4.5696,0,0,0,0,0,0,-4.5071,-4.5045,-4.4989,-4.5148,-4.5166,-4.5149,-4.5238,-4.517,-4.5214,-4.5196,-4.5119,-4.512,-4.526,-4.5257,-4.5161,-4.5414,-4.5287,-4.5309,-4.5411,-4.5448,-4.5478,-4.5476,-4.5009,0,0,0,0,0,-4.5129,-4.5202,-4.5175,-4.5318,-4.5329,-4.5283,-4.5319,-4.527,-4.5286,-4.5293,-4.5282,-4.5301,-4.5362,-4.5405,-4.546,-4.5634,-4.5632,-4.5719,-4.5749,-4.5774,-4.5794,-4.5885,-4.5923,-4.5516,-4.5516,-4.5516,0,0,-4.525,-4.5244,-4.5295,-4.5354,-4.5362,-4.5439,-4.529,-4.5379,-4.5435,-4.5307,-4.5425,-4.5418,-4.5434,-4.5585,-4.5651,-4.5587,-4.5906,-4.5796,-4.5816,-4.5822,-4.5906,-4.5945,-4.5979,-4.5528,-4.5526,-4.5524,0,0,-4.5508,-4.5512,-4.563,-4.5641,-4.5655,-4.5623,-4.5652,-4.5646,-4.5635,-4.5753,-4.5658,-4.5724,-4.5832,-4.5847,-4.5869,-4.6133,-4.6057,-4.6153,-4.6312,-4.6401,-4.6433,-4.6461,-4.6555,-4.6589,-4.6173,-4.6173,-4.6174,0,-4.5657,-4.5769,-4.57,-4.5795,-4.5823,-4.5708,-4.5827,-4.5841,-4.5874,-4.5896,-4.5823,-4.5956,-4.5959,-4.6111,-4.6175,-4.6197,-4.6227,-4.6153,-4.6434,-4.6461,-4.6487,-4.6575,-4.661,-4.6185,-4.6183,-4.6182,-4.6181,0,-4.595,-4.603,-4.6124,-4.6156,-4.6195,-4.6302,-4.6248,-4.6296,-4.6244,-4.6219,-4.634,-4.6339,-4.6391,-4.6424,-4.6375,-4.6569,-4.6529,-4.6447,-4.6319,-4.6538,-4.662,-4.6653,-4.6201,-4.6197,-4.6194,-4.6191,0,0,-4.6325,-4.6316,-4.6352,-4.6365,-4.6371,-4.6431,-4.6532,-4.6583,-4.6625,-4.665,-4.6733,-4.6827,-4.675,-4.6775,-4.6726,-4.6805,-4.7012,-4.6712,-4.6711,-4.6768,-4.7226,-4.7288,-4.7329,-4.6962,-4.6968,-4.6973,-4.7225,0,-4.6578,-4.6749,-4.6689,-4.6864,-4.6936,-4.6828,-4.6916,-4.6929,-4.6909,-4.6967,-4.6944,-4.7012,-4.6906,-4.692,-4.6993,-4.6972,-4.7103,-4.6953,-4.7038,-4.7042,-4.7038,-4.7371,-4.7437,-4.7675,-4.7256,-4.7262,-4.7266,0,-4.6896,-4.6933,-4.7116,-4.7108,-4.7136,-4.7216,-4.7257,-4.7314,-4.7327,-4.7306,-4.7334,-4.7268,-4.7366,-4.7237,-4.7371,-4.727,-4.7301,-4.7296,-4.7304,-4.731,-4.7167,-4.7386,-4.7749,-4.7785,-4.7315,-4.7311,-4.7308,0,-4.715,-4.7246,-4.7367,-4.7381,-4.7376,-4.7435,-4.7435,-4.7441,-4.7475,-4.751,-4.7531,-4.7579,-4.7605,-4.7643,-4.7591,-4.7503,-4.7733,-4.76,-4.7718,-4.772,-4.7772,-4.777,-4.8145,-4.7793,-4.7793,-4.7792,-4.7791,0,-4.7439,-4.7554,-4.748,-4.7555,-4.7681,-4.7611,-4.7738,-4.7726,-4.7732,-4.7802,-4.7712,-4.778,-4.7707,-4.7768,-4.7728,-4.7845,-4.7857,-4.7843,-4.7831,-4.7852,-4.7853,-4.7871,-4.7853,-4.7801,-4.7799,-4.7797,-4.7796,0,-4.7744,-4.7699,-4.7824,-4.7808,-4.7807,-4.7901,-4.7887,-4.7955,-4.7927,-4.8017,-4.8035,-4.7992,-4.8059,-4.8011,-4.8078,-4.8051,-4.8204,-4.8169,-4.82,-4.819,-4.8311,-4.83,-4.8711,-4.8761,-4.8378,-4.8381,-4.8385,0,-4.7931,-4.8017,-4.8011,-4.8051,-4.8057,-4.8123,-4.8157,-4.8091,-4.8129,-4.815,-4.8216,-4.8275,-4.8318,-4.8431,-4.8406,-4.8457,-4.8422,-4.8562,-4.8429,-4.8446,-4.8423,-4.8419,-4.8427,-4.859,-4.8594,-4.8598,-4.8601,0,-4.8268,-4.8241,-4.8293,-4.8337,-4.838,-4.8412,-4.8436,-4.8474,-4.8407,-4.8455,-4.8522,-4.8556,-4.8624,-4.8684,-4.8725,-4.8725,-4.8653,-4.8643,-4.8673,-4.8694,-4.8708,-4.8702,-4.8273,-4.8634,-4.863,-4.8628,-4.8626,-4.8625,-4.8519,-4.859,-4.8596,-4.8657,-4.8668,-4.8693,-4.8756,-4.8735,-4.879,-4.8839,-4.8797,-4.8878,-4.8887,-4.8934,-4.8944,-4.9005,-4.8948,-4.8991,-4.9002,-4.9014,-4.9031,-4.8699,-4.9013,-4.9012,-4.9011,-4.901,-4.9009,0,-4.8851,-4.8849,-4.8905,-4.8942,-4.8989,-4.8915,-4.8938,-4.8983,-4.9055,-4.9069,-4.9114,-4.9191,-4.9248,-4.9227,-4.9278,-4.9331,-4.9299,-4.9347,-4.9342,-4.9343,-4.908,-4.9049,-4.9372,-4.9372,-4.9372,-4.9372,-4.9371,-4.9371,-4.9029,-4.9145,-4.9119,-4.9239,-4.9236,-4.9314,-4.9333,-4.9355,-4.9366,-4.9456,-4.9503,-4.9488,-4.9489,-4.9538,-4.9587,-4.9579,-4.9602,-4.9662,-4.9643,-4.9397,-4.9362,-4.9328,-4.9298,-4.9668,-4.9668,-4.99,-4.9903,-4.9904]},{"header":{"parameterUnit":"m.s-1","parameterCategory":1,"la1":30.2991,"la2":30.254,"lo1":-89.0895,"lo2":-89.0444,"dy":0.0017,"dx":0.0017,"nx":28,"ny":28,"refTime":"2025-03-02T09:00:00:Z","depth":0,"parameterNumber":3,"parameterNumberName":"V-component_of_WINDS"},"data":[0,0,0,0,0,0,0,0,0,0,0,0,0,0,0,0,0,0,0,0,0,0,0,0,0,0,0,0,0,0,0,0,0,0,0,0,0,0,0,0,0,0,0,0,0,0,0,0,0,0,0,0,0,0,0,0,0,0,-1.5113,-1.5113,0,-1.5135,-1.5135,-1.5135,-1.5138,-1.5138,-1.5137,-1.5137,-1.5159,-1.516,-1.516,0,0,0,0,0,0,0,0,0,0,0,0,0,-1.5071,-1.5072,-1.5113,-1.5113,-1.5113,-1.5135,-1.5135,-1.5135,-1.5138,-1.5138,-1.5137,-1.5137,-1.5159,-1.5159,-1.516,0,0,0,0,0,0,0,0,0,0,0,0,0,-1.5091,-1.5072,-1.5113,-1.5117,-1.5118,-1.5135,-1.5135,-1.5135,-1.5138,-1.5138,-1.5137,-1.5137,-1.5158,-1.5159,-1.5161,-1.5174,0,0,-1.5164,-1.5165,0,0,0,0,0,0,0,0,-1.509,-1.5092,-1.5116,-1.5117,-1.5118,-1.5133,-1.5128,-1.5148,-1.5138,-1.513,-1.5137,-1.5137,-1.515,-1.5152,-1.5157,-1.5175,-1.5176,-1.5164,-1.5165,-1.5165,-1.5166,0,0,0,0,0,0,0,-1.5088,-1.5091,-1.5121,-1.5117,-1.5118,-1.5117,-1.512,-1.5132,-1.5142,-1.5131,-1.5131,-1.5134,-1.5151,-1.5156,-1.5158,-1.5176,-1.5164,-1.5165,-1.5166,-1.5166,-1.5204,-1.5204,0,0,0,0,0,0,-1.5086,-1.509,-1.5121,-1.5122,-1.5103,-1.5118,-1.5121,-1.5129,-1.5142,-1.5143,-1.5134,-1.5134,-1.5154,-1.5156,-1.5158,-1.5174,-1.5165,-1.5166,-1.5167,-1.5204,-1.5204,-1.5205,0,0,0,0,0,0,-1.5085,-1.5089,-1.512,-1.5106,-1.511,-1.5119,-1.5128,-1.5129,-1.5134,-1.5144,-1.5146,-1.5138,-1.5154,-1.5157,-1.517,-1.5175,-1.5167,-1.5168,-1.5204,-1.5204,-1.5204,-1.5205,0,0,0,0,0,0,-1.5084,-1.5089,-1.5095,-1.5106,-1.5111,-1.5132,-1.5128,-1.513,-1.5136,-1.5136,-1.5148,-1.5149,-1.5154,-1.5168,-1.5171,-1.5176,-1.5169,-1.5203,-1.5204,-1.5204,-1.5205,-1.5206,-1.5207,0,0,0,0,0,-1.5083,-1.5094,-1.5095,-1.5099,-1.5119,-1.5132,-1.5134,-1.514,-1.5137,-1.5142,-1.5148,-1.5149,-1.5173,-1.5169,-1.5173,-1.5178,-1.5203,-1.5204,-1.5204,-1.5205,-1.5206,-1.5207,0,0,0,0,0,0,-1.5083,-1.5096,-1.5097,-1.5113,-1.5121,-1.5132,-1.514,-1.5141,-1.515,-1.515,-1.5155,-1.5158,-1.517,-1.5175,-1.517,-1.5191,-1.5188,-1.5189,-1.5187,-1.5188,-1.5189,-1.5187,-1.517,0,0,0,0,0,-1.5085,-1.5096,-1.5106,-1.5119,-1.5123,-1.5131,-1.5137,-1.514,-1.5148,-1.5152,-1.5159,-1.5167,-1.5176,-1.5183,-1.5192,-1.5206,-1.5207,-1.5211,-1.5212,-1.5212,-1.5213,-1.5219,-1.5221,-1.5207,-1.5207,-1.5207,0,0,-1.509,-1.5098,-1.5104,-1.5119,-1.5126,-1.5136,-1.5134,-1.5144,-1.5151,-1.5154,-1.5166,-1.5171,-1.518,-1.5193,-1.5199,-1.5198,-1.5217,-1.5213,-1.5214,-1.5214,-1.522,-1.5221,-1.5223,-1.5207,-1.5207,-1.5207,0,0,-1.5102,-1.511,-1.5121,-1.5127,-1.5138,-1.5142,-1.5144,-1.5155,-1.5158,-1.5171,-1.5172,-1.518,-1.5197,-1.5203,-1.5208,-1.522,-1.5221,-1.5223,-1.5227,-1.5233,-1.5234,-1.5235,-1.5238,-1.5239,-1.5224,-1.5224,-1.5224,0,-1.5107,-1.5122,-1.5126,-1.5137,-1.5142,-1.5144,-1.5154,-1.5161,-1.5173,-1.5177,-1.5175,-1.5194,-1.5201,-1.5214,-1.5217,-1.5222,-1.5224,-1.5222,-1.5233,-1.5234,-1.5235,-1.5239,-1.524,-1.5224,-1.5224,-1.5224,-1.5224,0,-1.5125,-1.5135,-1.5143,-1.5154,-1.5161,-1.5171,-1.5176,-1.5183,-1.5184,-1.5189,-1.52,-1.5208,-1.5218,-1.5221,-1.5223,-1.5234,-1.5233,-1.5232,-1.5229,-1.5237,-1.524,-1.5241,-1.5224,-1.5224,-1.5224,-1.5224,0,0,-1.5141,-1.5153,-1.5155,-1.516,-1.517,-1.5178,-1.5187,-1.5197,-1.5201,-1.5209,-1.5216,-1.5229,-1.5228,-1.5234,-1.5236,-1.5241,-1.5249,-1.524,-1.524,-1.524,-1.526,-1.526,-1.5262,-1.5249,-1.5249,-1.525,-1.5259,0,-1.5154,-1.5171,-1.5174,-1.5189,-1.5197,-1.5198,-1.5206,-1.5212,-1.5216,-1.5223,-1.5227,-1.5236,-1.5234,-1.5237,-1.5242,-1.5247,-1.5253,-1.5246,-1.5255,-1.5255,-1.5253,-1.5263,-1.5264,-1.5272,-1.526,-1.526,-1.5261,0,-1.5172,-1.5179,-1.5194,-1.5201,-1.5205,-1.5212,-1.522,-1.5227,-1.5234,-1.5236,-1.5242,-1.5243,-1.5252,-1.5248,-1.5259,-1.5255,-1.5259,-1.5261,-1.5261,-1.5262,-1.5258,-1.5264,-1.5275,-1.5276,-1.5263,-1.5262,-1.5262,0,-1.5179,-1.5194,-1.5204,-1.5208,-1.5217,-1.5222,-1.5225,-1.5232,-1.5237,-1.5243,-1.5246,-1.5254,-1.5258,-1.5264,-1.5267,-1.5264,-1.5277,-1.5274,-1.5279,-1.5278,-1.5281,-1.5281,-1.5293,-1.5284,-1.5284,-1.5284,-1.5284,0,-1.5194,-1.5203,-1.5207,-1.5214,-1.5223,-1.5227,-1.5236,-1.5239,-1.5245,-1.5251,-1.5252,-1.5258,-1.5262,-1.5268,-1.5271,-1.5279,-1.5281,-1.5282,-1.5283,-1.5282,-1.5282,-1.5284,-1.5284,-1.5285,-1.5285,-1.5285,-1.5285,0,-1.5204,-1.5208,-1.5219,-1.5226,-1.5228,-1.5235,-1.524,-1.5246,-1.5249,-1.5257,-1.5259,-1.5264,-1.5271,-1.5274,-1.5283,-1.5285,-1.5294,-1.5294,-1.5291,-1.5292,-1.5295,-1.5295,-1.5309,-1.5311,-1.5302,-1.5302,-1.5302,0,-1.5213,-1.522,-1.5227,-1.5231,-1.5235,-1.5242,-1.5246,-1.5249,-1.5254,-1.5261,-1.5265,-1.5272,-1.5278,-1.5289,-1.5293,-1.5299,-1.53,-1.5304,-1.5301,-1.5299,-1.5299,-1.5298,-1.5298,-1.5305,-1.5305,-1.5305,-1.5305,0,-1.5227,-1.5228,-1.5235,-1.5241,-1.5247,-1.5252,-1.5258,-1.5261,-1.5264,-1.5269,-1.5276,-1.5281,-1.5289,-1.5296,-1.5302,-1.5305,-1.5305,-1.5306,-1.5307,-1.5306,-1.5304,-1.5305,-1.5293,-1.5306,-1.5306,-1.5306,-1.5306,-1.5306,-1.5236,-1.5242,-1.5247,-1.5254,-1.5258,-1.5262,-1.5268,-1.5271,-1.5277,-1.5284,-1.5285,-1.5292,-1.5297,-1.5305,-1.5309,-1.5314,-1.5313,-1.5315,-1.5315,-1.5315,-1.5315,-1.5304,-1.5315,-1.5315,-1.5315,-1.5315,-1.5315,0,-1.525,-1.5253,-1.5259,-1.5266,-1.5271,-1.527,-1.5276,-1.528,-1.5286,-1.529,-1.5296,-1.5303,-1.5309,-1.5313,-1.5318,-1.5322,-1.5322,-1.5323,-1.5323,-1.5323,-1.5316,-1.5314,-1.5323,-1.5323,-1.5323,-1.5323,-1.5323,-1.5323,-1.5257,-1.5266,-1.5267,-1.5277,-1.528,-1.5287,-1.529,-1.5294,-1.5297,-1.5305,-1.531,-1.5312,-1.5316,-1.5322,-1.5327,-1.5327,-1.5329,-1.533,-1.5331,-1.5325,-1.5324,-1.5323,-1.5321,-1.5331,-1.5331,-1.5338,-1.5338,-1.5338]}]]